Ellensburg, WA
on Friday, December 7, 2012

Friday
Previous Day Next Day
Daily Summary
 ActualAverage (KYKM)Record (KYKM)
Temperature
Mean Temperature °F 30°F  
Max Temperature 41°F 37°F 58°F (1973)
Min Temperature 28°F 22°F -2°F (1956)
Degree Days
Heating Degree Days 30 35  
Month to date heating degree days 240  
Since 1 July heating degree days 1773  
Cooling Degree Days 0 0  
Month to date cooling degree days 0  
Year to date cooling degree days 472  
Moisture
Dew Point 28°F   
Average Humidity 80    
Maximum Humidity 88    
Minimum Humidity 64    
Precipitation
Precipitation 0.06 in 0.04 in 0.53 in (1996)
Month to date precipitation 0.34  
Year to date precipitation 7.06  
Snow
Snow 0.00 in 0.30 in 4.60 in (1948)
Month to date snowfall 2.0  
Year to date snowfall 14.2  
Since 1 July snowfall 5.6  
Snow Depth in   
Wind
Wind Speed 6 mph   
Max Wind Speed 29 mph   
Max Gust Speed 43 mph   
Visibility 7 miles   
Events Fog , Rain , Snow   

Key: T is trace of precipitation, MM is missing value
Source: NWS Daily Summary
Time(PST)TemperatureDew PointHumidity Pressure Visibility Wind DirectionWind SpeedGust SpeedPrecipitationEvents Conditions
12:04 AM 28.4°F 24.8°F 86% 30.04 in 2.0 miles Calm Calm - N/A   Mist
12:11 AM 28.4°F 24.8°F 86% 30.04 in 10.0 miles NNW 4.6 mph - N/A   Unknown
12:25 AM 28.4°F 24.8°F 86% 30.04 in 2.5 miles Calm Calm - N/A   Partly Cloudy
12:29 AM 28.4°F 24.8°F 86% 30.04 in 1.0 miles Calm Calm - N/A   Mist
12:36 AM 28.4°F 24.8°F 86% 30.04 in 0.5 miles South 3.5 mph - N/A Fog Light Freezing Fog
12:53 AM 28.0°F 24.1°F 85% 30.08 in 0.8 miles Calm Calm - N/A   Mist
12:56 AM 28.4°F 24.8°F 86% 30.03 in 1.2 miles Calm Calm - N/A   Mostly Cloudy
1:00 AM 28.4°F 24.8°F 86% 30.03 in 4.0 miles Calm Calm - N/A   Scattered Clouds
1:53 AM 28.9°F 25.0°F 85% 30.06 in 10.0 miles SW 4.6 mph - N/A   Clear
2:49 AM 28.4°F 24.8°F 86% 30.01 in 6.0 miles East 4.6 mph - N/A   Haze
2:53 AM 28.9°F 25.0°F 85% 30.05 in 6.0 miles ENE 4.6 mph - N/A   Partly Cloudy
3:53 AM 30.9°F 27.0°F 85% 30.03 in 10.0 miles ESE 4.6 mph - N/A   Overcast
4:53 AM 33.1°F 28.9°F 85% 30.02 in 10.0 miles NE 8.1 mph - N/A   Overcast
5:53 AM 33.1°F 28.9°F 85% 30.01 in 10.0 miles NE 3.5 mph - N/A   Overcast
6:53 AM 32.0°F 28.9°F 88% 29.99 in 6.0 miles Calm Calm - 0.00 in   Overcast
7:53 AM 34.0°F 30.0°F 85% 29.97 in 9.0 miles Calm Calm - 0.00 in   Overcast
8:53 AM 35.1°F 30.0°F 82% 29.95 in 9.0 miles Calm Calm - 0.00 in   Overcast
9:53 AM 35.1°F 30.9°F 85% 29.95 in 6.0 miles WNW 3.5 mph - N/A   Overcast
10:53 AM 37.0°F 33.1°F 86% 29.92 in 10.0 miles WNW 8.1 mph - 0.00 in   Overcast
11:53 AM 39.0°F 34.0°F 82% 29.91 in 7.0 miles NNW 12.7 mph 19.6 mph 0.01 in Rain Light Rain
12:05 PM 39.2°F 33.8°F 81% 29.87 in 10.0 miles WNW 16.1 mph - 0.00 in Rain Light Rain
12:38 PM 39.2°F 33.8°F 81% 29.85 in 10.0 miles West 9.2 mph - 0.00 in   Mostly Cloudy
12:53 PM 39.9°F 34.0°F 79% 29.88 in 10.0 miles West 8.1 mph - 0.00 in   Mostly Cloudy
1:31 PM 39.2°F 33.8°F 81% 29.84 in 7.0 miles NW 12.7 mph - 0.02 in Rain Rain
1:53 PM 39.0°F 34.0°F 82% 29.88 in 10.0 miles NNW 10.4 mph - 0.02 in Rain Light Rain
2:53 PM 41.0°F 32.0°F 70% 29.89 in 10.0 miles West 8.1 mph - 0.00 in   Mostly Cloudy
3:53 PM 39.0°F 28.0°F 65% 29.91 in 10.0 miles WNW 13.8 mph - N/A   Scattered Clouds
4:20 PM 35.6°F 30.2°F 81% 29.91 in 1.8 miles NW 28.8 mph 42.6 mph 0.01 in Snow Light Snow
4:25 PM 35.6°F 30.2°F 81% 29.91 in 0.8 miles WNW 26.5 mph 38.0 mph 0.01 in Snow Light Snow
4:36 PM 35.6°F 30.2°F 81% 29.92 in 0.8 miles WNW 23.0 mph 31.1 mph 0.02 in Snow Light Snow
4:39 PM 35.6°F 30.2°F 81% 29.92 in 1.2 miles West 20.7 mph 28.8 mph 0.02 in Snow Light Snow
4:47 PM 35.6°F 28.4°F 75% 29.92 in 3.0 miles West 23.0 mph 29.9 mph 0.03 in Snow Light Snow
4:53 PM 35.1°F 28.9°F 78% 29.96 in 9.0 miles West 24.2 mph 31.1 mph 0.03 in   Overcast
5:05 PM 35.6°F 28.4°F 75% 29.92 in 10.0 miles West 24.2 mph 33.4 mph N/A   Overcast
5:53 PM 36.0°F 26.1°F 67% 29.97 in 10.0 miles WNW 16.1 mph - N/A   Overcast
6:53 PM 36.0°F 26.1°F 67% 29.99 in 10.0 miles WNW 12.7 mph - N/A   Overcast
7:53 PM 36.0°F 25.0°F 64% 30.02 in 10.0 miles WNW 20.7 mph 27.6 mph N/A   Overcast
8:53 PM 34.0°F 25.0°F 70% 30.04 in 10.0 miles WNW 8.1 mph - N/A   Clear
9:53 PM 34.0°F 27.0°F 75% 30.06 in 10.0 miles NW 15.0 mph - N/A   Overcast
10:53 PM 34.0°F 27.0°F 75% 30.06 in 10.0 miles NW 11.5 mph - N/A   Overcast
11:53 PM 32.0°F 26.1°F 79% 30.08 in 10.0 miles NNW 3.5 mph - N/A   Mostly Cloudy
Moon Phase
Dec. 07 Dec. 13 Dec. 20 Dec. 28 Jan. 04
Sunrise:07:34 AM (PST) Moon Rise:12:37 AM (PST)12/7
Sunset:04:12 PM (PST) Moon Set:12:32 PM (PST)12/7

Copyright © 2014 The Weather Underground, Inc.